{"data":{"norad_id":46702,"intl_designator":"2020-073AJ","name":"STARLINK-1802","alt_names":[],"object_type":"PAYLOAD","status":"ACTIVE","operator":null,"country":"US","launch_date":"2020-10-18","launch_site_code":"AFETR","launch_vehicle":null,"mission":null,"orbit_class":"UNKNOWN","rcs_meters":null,"size_class":null,"mass_kg":null,"dimensions":null,"purposes":["comms"],"wikipedia_slug":null,"has_3d_model":false,"image_url":null,"decayed_at":null,"tle_current":{"epoch":"2026-09-19T23:17:14.764992Z","epoch_age_seconds":63930,"freshness":"FRESH","line1":"1 46702U 20073AJ  26262.97030978  .00058323  00000+0  10744-2 0  9990","line2":"2 46702  53.1525  22.6772 0001895 323.4108  36.6771 15.48621257327397","mean_motion":15.48621257,"eccentricity":0.0001895,"inclination_deg":53.1525,"raan_deg":22.6772,"arg_perigee_deg":323.4108,"mean_anomaly_deg":36.6771,"bstar":0.0010744,"rev_number":32739,"period_min":92.985937878031,"perigee_km":419.47007413187,"apogee_km":422.04685551304,"semimajor_km":6798.8954648225,"source":"CELESTRAK","updated_at":"2026-09-20T09:00:38.586175Z"}}}